Year,Month,Day,Hour,Minute,Value (Times are PST for temperature in C)
2012,07,05,00,00,11.10
2012,07,05,00,01,11.10
2012,07,05,00,02,11.10
2012,07,05,00,03,11.10
2012,07,05,00,04,11.10
2012,07,05,00,05,11.10
2012,07,05,00,06,11.10
2012,07,05,00,07,11.10
2012,07,05,00,08,11.00
2012,07,05,00,09,11.00
2012,07,05,00,10,10.90
2012,07,05,00,11,10.90
2012,07,05,00,12,10.90
2012,07,05,00,13,10.90
2012,07,05,00,14,10.90
2012,07,05,00,15,10.90
2012,07,05,00,16,10.90
2012,07,05,00,17,10.90
2012,07,05,00,18,10.80
2012,07,05,00,19,10.80
2012,07,05,00,20,10.80
2012,07,05,00,21,10.80
2012,07,05,00,22,10.70
2012,07,05,00,23,10.70
2012,07,05,00,24,10.70
2012,07,05,00,25,10.70
2012,07,05,00,26,10.70
2012,07,05,00,27,10.70
2012,07,05,00,28,10.70
2012,07,05,00,29,10.60
2012,07,05,00,30,10.60
2012,07,05,00,31,10.60
2012,07,05,00,32,10.60
2012,07,05,00,33,10.60
2012,07,05,00,34,10.60
2012,07,05,00,35,10.60
2012,07,05,00,36,10.60
2012,07,05,00,37,10.50
2012,07,05,00,38,10.50
2012,07,05,00,39,10.50
2012,07,05,00,40,10.50
2012,07,05,00,41,10.50
2012,07,05,00,42,10.50
2012,07,05,00,43,10.40
2012,07,05,00,44,10.40
2012,07,05,00,45,10.40
2012,07,05,00,46,10.40
2012,07,05,00,47,10.40
2012,07,05,00,48,10.40
2012,07,05,00,49,10.40
2012,07,05,00,50,10.30
2012,07,05,00,51,10.30
2012,07,05,00,52,10.30
2012,07,05,00,53,10.30
2012,07,05,00,54,10.20
2012,07,05,00,55,10.20
2012,07,05,00,56,10.20
2012,07,05,00,57,10.20
2012,07,05,00,58,10.20
2012,07,05,00,59,10.20
2012,07,05,01,00,10.10
2012,07,05,01,01,10.10
2012,07,05,01,02,10.10
2012,07,05,01,03,10.00
2012,07,05,01,04,10.00
2012,07,05,01,05,10.00
2012,07,05,01,06,10.00
2012,07,05,01,07,9.90
2012,07,05,01,08,9.90
2012,07,05,01,09,9.90
2012,07,05,01,10,9.90
2012,07,05,01,11,9.90
2012,07,05,01,12,9.80
2012,07,05,01,13,9.80
2012,07,05,01,14,9.80
2012,07,05,01,15,9.80
2012,07,05,01,16,9.80
2012,07,05,01,17,9.80
2012,07,05,01,18,9.70
2012,07,05,01,19,9.70
2012,07,05,01,20,9.70
2012,07,05,01,21,9.70
2012,07,05,01,22,9.70
2012,07,05,01,23,9.60
2012,07,05,01,24,9.60
2012,07,05,01,25,9.60
2012,07,05,01,26,9.60
2012,07,05,01,27,9.60
2012,07,05,01,28,9.50
2012,07,05,01,29,9.50
2012,07,05,01,30,9.50
2012,07,05,01,31,9.50
2012,07,05,01,32,9.40
2012,07,05,01,33,9.40
2012,07,05,01,34,9.40
2012,07,05,01,35,9.40
2012,07,05,01,36,9.40
2012,07,05,01,37,9.40
2012,07,05,01,38,9.30
2012,07,05,01,39,9.30
2012,07,05,01,40,9.30
2012,07,05,01,41,9.30
2012,07,05,01,42,9.30
2012,07,05,01,43,9.30
2012,07,05,01,44,9.20
2012,07,05,01,45,9.20
2012,07,05,01,46,9.20
2012,07,05,01,47,9.20
2012,07,05,01,48,9.20
2012,07,05,01,49,9.20
2012,07,05,01,50,9.20
2012,07,05,01,51,9.20
2012,07,05,01,52,9.20
2012,07,05,01,53,9.20
2012,07,05,01,54,9.20
2012,07,05,01,55,9.20
2012,07,05,01,56,9.20
2012,07,05,01,57,9.10
2012,07,05,01,58,9.10
2012,07,05,01,59,9.10
2012,07,05,02,00,9.10
2012,07,05,02,01,9.10
2012,07,05,02,02,9.10
2012,07,05,02,03,9.10
2012,07,05,02,04,9.00
2012,07,05,02,05,9.00
2012,07,05,02,06,9.00
2012,07,05,02,07,9.00
2012,07,05,02,08,9.00
2012,07,05,02,09,8.90
2012,07,05,02,10,8.90
2012,07,05,02,11,8.90
2012,07,05,02,12,8.90
2012,07,05,02,13,8.90
2012,07,05,02,14,8.90
2012,07,05,02,15,8.90
2012,07,05,02,16,8.90
2012,07,05,02,17,8.90
2012,07,05,02,18,8.90
2012,07,05,02,19,8.90
2012,07,05,02,20,8.90
2012,07,05,02,21,8.80
2012,07,05,02,22,8.80
2012,07,05,02,23,8.80
2012,07,05,02,24,8.80
2012,07,05,02,25,8.80
2012,07,05,02,26,8.80
2012,07,05,02,27,8.80
2012,07,05,02,28,8.80
2012,07,05,02,29,8.80
2012,07,05,02,30,8.80
2012,07,05,02,31,8.80
2012,07,05,02,32,8.80
2012,07,05,02,33,8.70
2012,07,05,02,34,8.70
2012,07,05,02,35,8.70
2012,07,05,02,36,8.70
2012,07,05,02,37,8.70
2012,07,05,02,38,8.70
2012,07,05,02,39,8.60
2012,07,05,02,40,8.60
2012,07,05,02,41,8.60
2012,07,05,02,42,8.60
2012,07,05,02,43,8.60
2012,07,05,02,44,8.50
2012,07,05,02,45,8.50
2012,07,05,02,46,8.40
2012,07,05,02,47,8.40
2012,07,05,02,48,8.40
2012,07,05,02,49,8.40
2012,07,05,02,50,8.40
2012,07,05,02,51,8.40
2012,07,05,02,52,8.40
2012,07,05,02,53,8.40
2012,07,05,02,54,8.40
2012,07,05,02,55,8.40
2012,07,05,02,56,8.30
2012,07,05,02,57,8.30
2012,07,05,02,58,8.30
2012,07,05,02,59,8.30
2012,07,05,03,00,8.30
2012,07,05,03,01,8.30
2012,07,05,03,02,8.30
2012,07,05,03,03,8.30
2012,07,05,03,04,8.30
2012,07,05,03,05,8.30
2012,07,05,03,06,8.30
2012,07,05,03,07,8.20
2012,07,05,03,08,8.20
2012,07,05,03,09,8.20
2012,07,05,03,10,8.20
2012,07,05,03,11,8.20
2012,07,05,03,12,8.20
2012,07,05,03,13,8.10
2012,07,05,03,14,8.10
2012,07,05,03,15,8.10
2012,07,05,03,16,8.10
2012,07,05,03,17,8.10
2012,07,05,03,18,8.10
2012,07,05,03,19,8.10
2012,07,05,03,20,8.10
2012,07,05,03,21,8.10
2012,07,05,03,22,8.10
2012,07,05,03,23,8.10
2012,07,05,03,24,8.00
2012,07,05,03,25,8.00
2012,07,05,03,26,8.00
2012,07,05,03,27,7.90
2012,07,05,03,28,7.90
2012,07,05,03,29,7.90
2012,07,05,03,30,7.90
2012,07,05,03,31,7.90
2012,07,05,03,32,7.90
2012,07,05,03,33,7.90
2012,07,05,03,34,7.90
2012,07,05,03,35,7.90
2012,07,05,03,36,7.90
2012,07,05,03,37,7.90
2012,07,05,03,38,7.90
2012,07,05,03,39,7.90
2012,07,05,03,40,7.90
2012,07,05,03,41,7.90
2012,07,05,03,42,7.90
2012,07,05,03,43,7.90
2012,07,05,03,44,7.80
2012,07,05,03,45,7.80
2012,07,05,03,46,7.80
2012,07,05,03,47,7.80
2012,07,05,03,48,7.80
2012,07,05,03,49,7.80
2012,07,05,03,50,7.80
2012,07,05,03,51,7.80
2012,07,05,03,52,7.80
2012,07,05,03,53,7.80
2012,07,05,03,54,7.80
2012,07,05,03,55,7.80
2012,07,05,03,56,7.80
2012,07,05,03,57,7.70
2012,07,05,03,58,7.70
2012,07,05,03,59,7.70
2012,07,05,04,00,7.70
2012,07,05,04,01,7.70
2012,07,05,04,02,7.70
2012,07,05,04,03,7.70
2012,07,05,04,04,7.70
2012,07,05,04,05,7.70
2012,07,05,04,06,7.70
2012,07,05,04,07,7.70
2012,07,05,04,08,7.70
2012,07,05,04,09,7.60
2012,07,05,04,10,7.60
2012,07,05,04,11,7.60
2012,07,05,04,12,7.60
2012,07,05,04,13,7.60
2012,07,05,04,14,7.60
2012,07,05,04,15,7.60
2012,07,05,04,16,7.60
2012,07,05,04,17,7.60
2012,07,05,04,18,7.60
2012,07,05,04,19,7.60
2012,07,05,04,20,7.50
2012,07,05,04,21,7.50
2012,07,05,04,22,7.50
2012,07,05,04,23,7.50
2012,07,05,04,24,7.50
2012,07,05,04,25,7.50
2012,07,05,04,26,7.50
2012,07,05,04,27,7.50
2012,07,05,04,28,7.50
2012,07,05,04,29,7.40
2012,07,05,04,30,7.40
2012,07,05,04,31,7.40
2012,07,05,04,32,7.40
2012,07,05,04,33,7.30
2012,07,05,04,34,7.30
2012,07,05,04,35,7.30
2012,07,05,04,36,7.30
2012,07,05,04,37,7.30
2012,07,05,04,38,7.30
2012,07,05,04,39,7.30
2012,07,05,04,40,7.20
2012,07,05,04,41,7.20
2012,07,05,04,42,7.20
2012,07,05,04,43,7.20
2012,07,05,04,44,7.20
2012,07,05,04,45,7.20
2012,07,05,04,46,7.10
2012,07,05,04,47,7.10
2012,07,05,04,48,7.10
2012,07,05,04,49,7.10
2012,07,05,04,50,7.10
2012,07,05,04,51,7.10
2012,07,05,04,52,7.10
2012,07,05,04,53,7.10
2012,07,05,04,54,7.10
2012,07,05,04,55,7.10
2012,07,05,04,56,7.10
2012,07,05,04,57,7.10
2012,07,05,04,58,7.10
2012,07,05,04,59,7.10
2012,07,05,05,00,7.10
2012,07,05,05,01,7.10
2012,07,05,05,02,7.10
2012,07,05,05,03,7.10
2012,07,05,05,04,7.10
2012,07,05,05,05,7.10
2012,07,05,05,06,7.00
2012,07,05,05,07,7.00
2012,07,05,05,08,7.00
2012,07,05,05,09,7.00
2012,07,05,05,10,6.90
2012,07,05,05,11,6.90
2012,07,05,05,12,6.90
2012,07,05,05,13,6.90
2012,07,05,05,14,6.90
2012,07,05,05,15,6.90
2012,07,05,05,16,6.80
2012,07,05,05,17,6.80
2012,07,05,05,18,6.80
2012,07,05,05,19,6.80
2012,07,05,05,20,6.80
2012,07,05,05,21,6.80
2012,07,05,05,22,6.80
2012,07,05,05,23,6.80
2012,07,05,05,24,6.80
2012,07,05,05,25,6.80
2012,07,05,05,26,6.80
2012,07,05,05,27,6.80
2012,07,05,05,28,6.80
2012,07,05,05,29,6.80
2012,07,05,05,30,6.80
2012,07,05,05,31,6.80
2012,07,05,05,32,6.80
2012,07,05,05,33,6.80
2012,07,05,05,34,6.80
2012,07,05,05,35,6.80
2012,07,05,05,36,6.80
2012,07,05,05,37,6.80
2012,07,05,05,38,6.80
2012,07,05,05,39,6.80
2012,07,05,05,40,6.80
2012,07,05,05,41,6.80
2012,07,05,05,42,6.70
2012,07,05,05,43,6.70
2012,07,05,05,44,6.70
2012,07,05,05,45,6.70
2012,07,05,05,46,6.70
2012,07,05,05,47,6.70
2012,07,05,05,48,6.70
2012,07,05,05,49,6.70
2012,07,05,05,50,6.70
2012,07,05,05,51,6.70
2012,07,05,05,52,6.70
2012,07,05,05,53,6.70
2012,07,05,05,54,6.70
2012,07,05,05,55,6.80
2012,07,05,05,56,6.70
2012,07,05,05,57,6.80
2012,07,05,05,58,6.80
2012,07,05,05,59,6.80
2012,07,05,06,00,6.70
2012,07,05,06,01,6.70
2012,07,05,06,02,6.70
2012,07,05,06,03,6.70
2012,07,05,06,04,6.70
2012,07,05,06,05,6.70
2012,07,05,06,06,6.70
2012,07,05,06,07,6.70
2012,07,05,06,08,6.80
2012,07,05,06,09,6.80
2012,07,05,06,10,6.80
2012,07,05,06,11,6.80
2012,07,05,06,12,6.80
2012,07,05,06,13,6.80
2012,07,05,06,14,6.80
2012,07,05,06,15,6.80
2012,07,05,06,16,6.80
2012,07,05,06,17,6.80
2012,07,05,06,18,6.80
2012,07,05,06,19,6.80
2012,07,05,06,20,6.80
2012,07,05,06,21,6.80
2012,07,05,06,22,6.80
2012,07,05,06,23,6.80
2012,07,05,06,24,6.90
2012,07,05,06,25,6.90
2012,07,05,06,26,6.90
2012,07,05,06,27,7.00
2012,07,05,06,28,7.00
2012,07,05,06,29,7.00
2012,07,05,06,30,7.00
2012,07,05,06,31,7.00
2012,07,05,06,32,7.10
2012,07,05,06,33,7.10
2012,07,05,06,34,7.10
2012,07,05,06,35,7.10
2012,07,05,06,36,7.10
2012,07,05,06,37,7.10
2012,07,05,06,38,7.20
2012,07,05,06,39,7.20
2012,07,05,06,40,7.20
2012,07,05,06,41,7.20
2012,07,05,06,42,7.30
2012,07,05,06,43,7.30
2012,07,05,06,44,7.30
2012,07,05,06,45,7.40
2012,07,05,06,46,7.40
2012,07,05,06,47,7.40
2012,07,05,06,48,7.50
2012,07,05,06,49,7.50
2012,07,05,06,50,7.60
2012,07,05,06,51,7.60
2012,07,05,06,52,7.70
2012,07,05,06,53,7.70
2012,07,05,06,54,7.80
2012,07,05,06,55,7.90
2012,07,05,06,56,7.90
2012,07,05,06,57,8.00
2012,07,05,06,58,8.00
2012,07,05,06,59,8.10
2012,07,05,07,00,8.20
2012,07,05,07,01,8.20
2012,07,05,07,02,8.30
2012,07,05,07,03,8.40
2012,07,05,07,04,8.50
2012,07,05,07,05,8.60
2012,07,05,07,06,8.70
2012,07,05,07,07,8.70
2012,07,05,07,08,8.80
2012,07,05,07,09,8.80
2012,07,05,07,10,8.90
2012,07,05,07,11,8.90
2012,07,05,07,12,9.00
2012,07,05,07,13,9.00
2012,07,05,07,14,9.10
2012,07,05,07,15,9.10
2012,07,05,07,16,9.10
2012,07,05,07,17,9.10
2012,07,05,07,18,9.20
2012,07,05,07,19,9.20
2012,07,05,07,20,9.20
2012,07,05,07,21,9.20
2012,07,05,07,22,9.20
2012,07,05,07,23,9.30
2012,07,05,07,24,9.30
2012,07,05,07,25,9.30
2012,07,05,07,26,9.40
2012,07,05,07,27,9.40
2012,07,05,07,28,9.50
2012,07,05,07,29,9.60
2012,07,05,07,30,9.60
2012,07,05,07,31,9.70
2012,07,05,07,32,9.70
2012,07,05,07,33,9.70
2012,07,05,07,34,9.80
2012,07,05,07,35,9.80
2012,07,05,07,36,9.90
2012,07,05,07,37,9.90
2012,07,05,07,38,10.00
2012,07,05,07,39,10.00
2012,07,05,07,40,10.00
2012,07,05,07,41,10.10
2012,07,05,07,42,10.10
2012,07,05,07,43,10.10
2012,07,05,07,44,10.20
2012,07,05,07,45,10.20
2012,07,05,07,46,10.30
2012,07,05,07,47,10.30
2012,07,05,07,48,10.40
2012,07,05,07,49,10.50
2012,07,05,07,50,10.60
2012,07,05,07,51,10.70
2012,07,05,07,52,10.80
2012,07,05,07,53,10.90
2012,07,05,07,54,10.90
2012,07,05,07,55,11.00
2012,07,05,07,56,11.00
2012,07,05,07,57,11.10
2012,07,05,07,58,11.10
2012,07,05,07,59,11.10
2012,07,05,08,00,11.20
2012,07,05,08,01,11.20
2012,07,05,08,02,11.20
2012,07,05,08,03,11.30
2012,07,05,08,04,11.30
2012,07,05,08,05,11.30
2012,07,05,08,06,11.30
2012,07,05,08,07,11.30
2012,07,05,08,08,11.30
2012,07,05,08,09,11.40
2012,07,05,08,10,11.40
2012,07,05,08,11,11.40
2012,07,05,08,12,11.50
2012,07,05,08,13,11.50
2012,07,05,08,14,11.50
2012,07,05,08,15,11.50
2012,07,05,08,16,11.50
2012,07,05,08,17,11.50
2012,07,05,08,18,11.50
2012,07,05,08,19,11.50
2012,07,05,08,20,11.60
2012,07,05,08,21,11.60
2012,07,05,08,22,11.70
2012,07,05,08,23,11.70
2012,07,05,08,24,11.70
2012,07,05,08,25,11.70
2012,07,05,08,26,11.70
2012,07,05,08,27,11.70
2012,07,05,08,28,12.10
2012,07,05,08,29,12.10
2012,07,05,08,30,12.20
2012,07,05,08,31,12.20
2012,07,05,08,32,12.30
2012,07,05,08,33,12.40
2012,07,05,08,34,12.40
2012,07,05,08,35,12.50
2012,07,05,08,36,12.50
2012,07,05,08,37,12.60
2012,07,05,08,38,12.60
2012,07,05,08,39,12.70
2012,07,05,08,40,12.70
2012,07,05,08,41,12.70
2012,07,05,08,42,12.70
2012,07,05,08,43,12.70
2012,07,05,08,44,12.80
2012,07,05,08,45,12.90
2012,07,05,08,46,13.00
2012,07,05,08,47,13.10
2012,07,05,08,48,13.10
2012,07,05,08,49,13.10
2012,07,05,08,50,13.10
2012,07,05,08,51,13.10
2012,07,05,08,52,13.10
2012,07,05,08,53,13.10
2012,07,05,08,54,13.10
2012,07,05,08,55,13.00
2012,07,05,08,56,13.00
2012,07,05,08,57,13.10
2012,07,05,08,58,13.10
2012,07,05,08,59,13.20
2012,07,05,09,00,13.30
2012,07,05,09,01,13.30
2012,07,05,09,02,13.40
2012,07,05,09,03,13.50
2012,07,05,09,04,13.50
2012,07,05,09,05,13.60
2012,07,05,09,06,13.60
2012,07,05,09,07,13.60
2012,07,05,09,08,13.60
2012,07,05,09,09,13.60
2012,07,05,09,10,13.70
2012,07,05,09,11,13.70
2012,07,05,09,12,13.80
2012,07,05,09,13,13.80
2012,07,05,09,14,13.90
2012,07,05,09,15,13.90
2012,07,05,09,16,14.00
2012,07,05,09,17,14.10
2012,07,05,09,18,14.20
2012,07,05,09,19,14.20
2012,07,05,09,20,14.20
2012,07,05,09,21,14.20
2012,07,05,09,22,14.20
2012,07,05,09,23,14.20
2012,07,05,09,24,14.20
2012,07,05,09,25,14.20
2012,07,05,09,26,14.20
2012,07,05,09,27,14.20
2012,07,05,09,28,14.30
2012,07,05,09,29,14.30
2012,07,05,09,30,14.30
2012,07,05,09,31,14.30
2012,07,05,09,32,14.20
2012,07,05,09,33,14.20
2012,07,05,09,34,14.20
2012,07,05,09,35,14.20
2012,07,05,09,36,14.20
2012,07,05,09,37,14.30
2012,07,05,09,38,14.30
2012,07,05,09,39,14.40
2012,07,05,09,40,14.50
2012,07,05,09,41,14.60
2012,07,05,09,42,14.70
2012,07,05,09,43,14.70
2012,07,05,09,44,14.70
2012,07,05,09,45,14.70
2012,07,05,09,46,14.80
2012,07,05,09,47,14.80
2012,07,05,09,48,14.80
2012,07,05,09,49,14.80
2012,07,05,09,50,14.80
2012,07,05,09,51,14.80
2012,07,05,09,52,14.80
2012,07,05,09,53,14.80
2012,07,05,09,54,14.80
2012,07,05,09,55,14.90
2012,07,05,09,56,14.90
2012,07,05,09,57,15.00
2012,07,05,09,58,15.00
2012,07,05,09,59,15.10
2012,07,05,10,00,15.10
2012,07,05,10,01,15.10
2012,07,05,10,02,15.10
2012,07,05,10,03,15.10
2012,07,05,10,04,15.10
2012,07,05,10,05,15.10
2012,07,05,10,06,15.10
2012,07,05,10,07,15.10
2012,07,05,10,08,15.10
2012,07,05,10,09,15.10
2012,07,05,10,10,15.20
2012,07,05,10,11,15.20
2012,07,05,10,12,15.30
2012,07,05,10,13,15.30
2012,07,05,10,14,15.30
2012,07,05,10,15,15.40
2012,07,05,10,16,15.50
2012,07,05,10,17,15.50
2012,07,05,10,18,15.50
2012,07,05,10,19,15.60
2012,07,05,10,20,15.60
2012,07,05,10,21,15.60
2012,07,05,10,22,15.60
2012,07,05,10,23,15.70
2012,07,05,10,24,15.70
2012,07,05,10,25,15.70
2012,07,05,10,26,15.80
2012,07,05,10,27,15.90
2012,07,05,10,28,15.90
2012,07,05,10,29,16.00
2012,07,05,10,30,16.10
2012,07,05,10,31,16.20
2012,07,05,10,32,16.30
2012,07,05,10,33,16.40
2012,07,05,10,34,16.50
2012,07,05,10,35,16.60
2012,07,05,10,36,16.70
2012,07,05,10,37,16.70
2012,07,05,10,38,16.70
2012,07,05,10,39,16.70
2012,07,05,10,40,16.70
2012,07,05,10,41,16.80
2012,07,05,10,42,16.80
2012,07,05,10,43,16.80
2012,07,05,10,44,16.90
2012,07,05,10,45,16.90
2012,07,05,10,46,16.90
2012,07,05,10,47,16.90
2012,07,05,10,48,17.00
2012,07,05,10,49,17.00
2012,07,05,10,50,17.00
2012,07,05,10,51,16.90
2012,07,05,10,52,16.90
2012,07,05,10,53,16.80
2012,07,05,10,54,16.80
2012,07,05,10,55,16.80
2012,07,05,10,56,16.80
2012,07,05,10,57,16.80
2012,07,05,10,58,16.80
2012,07,05,10,59,16.80
2012,07,05,11,00,16.90
2012,07,05,11,01,16.90
2012,07,05,11,02,17.00
2012,07,05,11,03,17.10
2012,07,05,11,04,17.10
2012,07,05,11,05,17.10
2012,07,05,11,06,17.20
2012,07,05,11,07,17.20
2012,07,05,11,08,17.30
2012,07,05,11,09,17.40
2012,07,05,11,10,17.40
2012,07,05,11,11,17.40
2012,07,05,11,12,17.40
2012,07,05,11,13,17.40
2012,07,05,11,14,17.40
2012,07,05,11,15,17.50
2012,07,05,11,16,17.60
2012,07,05,11,17,17.70
2012,07,05,11,18,17.70
2012,07,05,11,19,17.80
2012,07,05,11,20,17.90
2012,07,05,11,21,18.00
2012,07,05,11,22,18.00
2012,07,05,11,23,18.10
2012,07,05,11,24,18.10
2012,07,05,11,25,18.20
2012,07,05,11,26,18.20
2012,07,05,11,27,18.30
2012,07,05,11,28,18.40
2012,07,05,11,29,18.50
2012,07,05,11,30,18.60
2012,07,05,11,31,18.70
2012,07,05,11,32,18.80
2012,07,05,11,33,18.80
2012,07,05,11,34,18.90
2012,07,05,11,35,18.90
2012,07,05,11,36,19.00
2012,07,05,11,37,19.00
2012,07,05,11,38,19.10
2012,07,05,11,39,19.10
2012,07,05,11,40,19.20
2012,07,05,11,41,19.20
2012,07,05,11,42,19.20
2012,07,05,11,43,19.20
2012,07,05,11,44,19.20
2012,07,05,11,45,19.30
2012,07,05,11,46,19.40
2012,07,05,11,47,19.50
2012,07,05,11,48,19.60
2012,07,05,11,49,19.80
2012,07,05,11,50,19.80
2012,07,05,11,51,19.80
2012,07,05,11,52,19.80
2012,07,05,11,53,20.00
2012,07,05,11,54,20.10
2012,07,05,11,55,20.10
2012,07,05,11,56,20.10
2012,07,05,11,57,20.10
2012,07,05,11,58,20.20
2012,07,05,11,59,20.20
2012,07,05,12,00,20.30
2012,07,05,12,01,20.40
2012,07,05,12,02,20.40
2012,07,05,12,03,20.40
2012,07,05,12,04,20.40
2012,07,05,12,05,20.50
2012,07,05,12,06,20.50
2012,07,05,12,07,20.60
2012,07,05,12,08,20.60
2012,07,05,12,09,20.60
2012,07,05,12,10,20.60
2012,07,05,12,11,20.60
2012,07,05,12,12,20.70
2012,07,05,12,13,20.70
2012,07,05,12,14,20.70
2012,07,05,12,15,20.70
2012,07,05,12,16,20.70
2012,07,05,12,17,20.70
2012,07,05,12,18,20.60
2012,07,05,12,19,20.50
2012,07,05,12,20,20.50
2012,07,05,12,21,20.40
2012,07,05,12,22,20.30
2012,07,05,12,23,20.30
2012,07,05,12,24,20.30
2012,07,05,12,25,20.20
2012,07,05,12,26,20.20
2012,07,05,12,27,20.30
2012,07,05,12,28,20.30
2012,07,05,12,29,20.40
2012,07,05,12,30,20.50
2012,07,05,12,31,20.60
2012,07,05,12,32,20.70
2012,07,05,12,33,20.80
2012,07,05,12,34,20.90
2012,07,05,12,35,21.00
2012,07,05,12,36,21.10
2012,07,05,12,37,21.20
2012,07,05,12,38,21.20
2012,07,05,12,39,21.30
2012,07,05,12,40,21.30
2012,07,05,12,41,21.40
2012,07,05,12,42,21.40
2012,07,05,12,43,21.40
2012,07,05,12,44,21.50
2012,07,05,12,45,21.50
2012,07,05,12,46,21.50
2012,07,05,12,47,21.60
2012,07,05,12,48,21.60
2012,07,05,12,49,21.70
2012,07,05,12,50,21.70
2012,07,05,12,51,21.80
2012,07,05,12,52,21.80
2012,07,05,12,53,21.90
2012,07,05,12,54,22.00
2012,07,05,12,55,22.00
2012,07,05,12,56,22.10
2012,07,05,12,57,22.20
2012,07,05,12,58,22.20
2012,07,05,12,59,22.10
2012,07,05,13,00,22.00
2012,07,05,13,01,21.90
2012,07,05,13,02,21.80
2012,07,05,13,03,21.70
2012,07,05,13,04,21.70
2012,07,05,13,05,21.70
2012,07,05,13,06,21.70
2012,07,05,13,07,21.60
2012,07,05,13,08,21.60
2012,07,05,13,09,21.50
2012,07,05,13,10,21.50
2012,07,05,13,11,21.60
2012,07,05,13,12,21.70
2012,07,05,13,13,21.80
2012,07,05,13,14,21.80
2012,07,05,13,15,21.80
2012,07,05,13,16,21.90
2012,07,05,13,17,21.90
2012,07,05,13,18,21.80
2012,07,05,13,19,21.80
2012,07,05,13,20,21.80
2012,07,05,13,21,21.80
2012,07,05,13,22,21.90
2012,07,05,13,23,21.90
2012,07,05,13,24,22.00
2012,07,05,13,25,22.00
2012,07,05,13,26,22.00
2012,07,05,13,27,22.00
2012,07,05,13,28,22.00
2012,07,05,13,29,22.00
2012,07,05,13,30,22.10
2012,07,05,13,31,22.10
2012,07,05,13,32,22.10
2012,07,05,13,33,22.10
2012,07,05,13,34,22.20
2012,07,05,13,35,22.30
2012,07,05,13,36,22.30
2012,07,05,13,37,22.30
2012,07,05,13,38,22.30
2012,07,05,13,39,22.40
2012,07,05,13,40,22.50
2012,07,05,13,41,22.50
2012,07,05,13,42,22.60
2012,07,05,13,43,22.60
2012,07,05,13,44,22.70
2012,07,05,13,45,22.70
2012,07,05,13,46,22.80
2012,07,05,13,47,22.90
2012,07,05,13,48,22.90
2012,07,05,13,49,22.90
2012,07,05,13,50,22.90
2012,07,05,13,51,22.80
2012,07,05,13,52,22.80
2012,07,05,13,53,22.80
2012,07,05,13,54,22.80
2012,07,05,13,55,22.80
2012,07,05,13,56,22.80
2012,07,05,13,57,22.80
2012,07,05,13,58,22.90
2012,07,05,13,59,23.00
2012,07,05,14,00,23.10
2012,07,05,14,01,23.20
2012,07,05,14,02,23.30
2012,07,05,14,03,23.40
2012,07,05,14,04,23.40
2012,07,05,14,05,23.30
2012,07,05,14,06,23.20
2012,07,05,14,07,23.20
2012,07,05,14,08,23.10
2012,07,05,14,09,23.10
2012,07,05,14,10,23.20
2012,07,05,14,11,23.20
2012,07,05,14,12,23.30
2012,07,05,14,13,23.30
2012,07,05,14,14,23.30
2012,07,05,14,15,23.20
2012,07,05,14,16,23.20
2012,07,05,14,17,23.20
2012,07,05,14,18,23.20
2012,07,05,14,19,23.20
2012,07,05,14,20,23.20
2012,07,05,14,21,23.20
2012,07,05,14,22,23.10
2012,07,05,14,23,23.10
2012,07,05,14,24,23.10
2012,07,05,14,25,23.10
2012,07,05,14,26,23.20
2012,07,05,14,27,23.30
2012,07,05,14,28,23.50
2012,07,05,14,29,23.60
2012,07,05,14,30,23.70
2012,07,05,14,31,23.80
2012,07,05,14,32,23.90
2012,07,05,14,33,24.00
2012,07,05,14,34,24.00
2012,07,05,14,35,23.80
2012,07,05,14,36,23.80
2012,07,05,14,37,23.80
2012,07,05,14,38,23.90
2012,07,05,14,39,24.00
2012,07,05,14,40,24.00
2012,07,05,14,41,24.10
2012,07,05,14,42,24.20
2012,07,05,14,43,24.20
2012,07,05,14,44,24.10
2012,07,05,14,45,24.00
2012,07,05,14,46,23.90
2012,07,05,14,47,23.80
2012,07,05,14,48,23.80
2012,07,05,14,49,23.90
2012,07,05,14,50,23.90
2012,07,05,14,51,23.90
2012,07,05,14,52,23.90
2012,07,05,14,53,23.90
2012,07,05,14,54,23.90
2012,07,05,14,55,23.80
2012,07,05,14,56,23.80
2012,07,05,14,57,23.60
2012,07,05,14,58,23.50
2012,07,05,14,59,23.40
2012,07,05,15,00,23.40
2012,07,05,15,01,23.30
2012,07,05,15,02,23.30
2012,07,05,15,03,23.30
2012,07,05,15,04,23.30
2012,07,05,15,05,23.30
2012,07,05,15,06,23.20
2012,07,05,15,07,23.20
2012,07,05,15,08,23.10
2012,07,05,15,09,23.00
2012,07,05,15,10,23.00
2012,07,05,15,11,23.00
2012,07,05,15,12,23.10
2012,07,05,15,13,23.10
2012,07,05,15,14,23.10
2012,07,05,15,15,23.10
2012,07,05,15,16,23.00
2012,07,05,15,17,23.00
2012,07,05,15,18,23.00
2012,07,05,15,19,23.10
2012,07,05,15,20,23.10
2012,07,05,15,21,23.20
2012,07,05,15,22,23.20
2012,07,05,15,23,23.20
2012,07,05,15,24,23.20
2012,07,05,15,25,23.20
2012,07,05,15,26,23.20
2012,07,05,15,27,23.10
2012,07,05,15,28,23.10
2012,07,05,15,29,23.10
2012,07,05,15,30,23.20
2012,07,05,15,31,23.20
2012,07,05,15,32,23.30
2012,07,05,15,33,23.30
2012,07,05,15,34,23.30
2012,07,05,15,35,23.30
2012,07,05,15,36,23.20
2012,07,05,15,37,23.20
2012,07,05,15,38,23.20
2012,07,05,15,39,23.20
2012,07,05,15,40,23.20
2012,07,05,15,41,23.30
2012,07,05,15,42,23.30
2012,07,05,15,43,23.20
2012,07,05,15,44,23.20
2012,07,05,15,45,23.10
2012,07,05,15,46,23.10
2012,07,05,15,47,23.20
2012,07,05,15,48,23.30
2012,07,05,15,49,23.40
2012,07,05,15,50,23.40
2012,07,05,15,51,23.40
2012,07,05,15,52,23.40
2012,07,05,15,53,23.30
2012,07,05,15,54,23.20
2012,07,05,15,55,23.20
2012,07,05,15,56,23.10
2012,07,05,15,57,23.10
2012,07,05,15,58,23.20
2012,07,05,15,59,23.10
2012,07,05,16,00,23.10
2012,07,05,16,01,23.10
2012,07,05,16,02,23.20
2012,07,05,16,03,23.20
2012,07,05,16,04,23.30
2012,07,05,16,05,23.30
2012,07,05,16,06,23.30
2012,07,05,16,07,23.20
2012,07,05,16,08,23.20
2012,07,05,16,09,23.10
2012,07,05,16,10,23.10
2012,07,05,16,11,23.20
2012,07,05,16,12,23.30
2012,07,05,16,13,23.30
2012,07,05,16,14,23.30
2012,07,05,16,15,23.40
2012,07,05,16,16,23.40
2012,07,05,16,17,23.40
2012,07,05,16,18,23.30
2012,07,05,16,19,23.30
2012,07,05,16,20,23.40
2012,07,05,16,21,23.40
2012,07,05,16,22,23.40
2012,07,05,16,23,23.40
2012,07,05,16,24,23.30
2012,07,05,16,25,23.30
2012,07,05,16,26,23.30
2012,07,05,16,27,23.20
2012,07,05,16,28,23.10
2012,07,05,16,29,23.10
2012,07,05,16,30,23.10
2012,07,05,16,31,23.10
2012,07,05,16,32,23.10
2012,07,05,16,33,23.10
2012,07,05,16,34,23.10
2012,07,05,16,35,23.10
2012,07,05,16,36,23.10
2012,07,05,16,37,23.20
2012,07,05,16,38,23.30
2012,07,05,16,39,23.40
2012,07,05,16,40,23.40
2012,07,05,16,41,23.40
2012,07,05,16,42,23.40
2012,07,05,16,43,23.40
2012,07,05,16,44,23.40
2012,07,05,16,45,23.40
2012,07,05,16,46,23.30
2012,07,05,16,47,23.30
2012,07,05,16,48,23.20
2012,07,05,16,49,23.20
2012,07,05,16,50,23.20
2012,07,05,16,51,23.20
2012,07,05,16,52,23.20
2012,07,05,16,53,23.20
2012,07,05,16,54,23.30
2012,07,05,16,55,23.30
2012,07,05,16,56,23.30
2012,07,05,16,57,23.30
2012,07,05,16,58,23.40
2012,07,05,16,59,23.40
2012,07,05,17,00,23.30
2012,07,05,17,01,23.30
2012,07,05,17,02,23.30
2012,07,05,17,03,23.30
2012,07,05,17,04,23.40
2012,07,05,17,05,23.30
2012,07,05,17,06,23.30
2012,07,05,17,07,23.30
2012,07,05,17,08,23.30
2012,07,05,17,09,23.30
2012,07,05,17,10,23.30
2012,07,05,17,11,23.20
2012,07,05,17,12,23.20
2012,07,05,17,13,23.20
2012,07,05,17,14,23.20
2012,07,05,17,15,23.20
2012,07,05,17,16,23.20
2012,07,05,17,17,23.20
2012,07,05,17,18,23.20
2012,07,05,17,19,23.20
2012,07,05,17,20,23.20
2012,07,05,17,21,23.20
2012,07,05,17,22,23.20
2012,07,05,17,23,23.20
2012,07,05,17,24,23.10
2012,07,05,17,25,23.10
2012,07,05,17,26,23.10
2012,07,05,17,27,23.10
2012,07,05,17,28,23.10
2012,07,05,17,29,23.20
2012,07,05,17,30,23.10
2012,07,05,17,31,23.10
2012,07,05,17,32,23.10
2012,07,05,17,33,23.10
2012,07,05,17,34,23.20
2012,07,05,17,35,23.20
2012,07,05,17,36,23.20